カタログに戻る

EUTELSAT HOTBIRD 13E

運用中通信GEO
NORAD 28946·PAYLOAD·🇪🇺 EU

打ち上げ Mar 11, 2006 から Guiana Space Centre

Loading…

TLE

最新Source: Space-Track

元期: Sep 14, 2026, 10:11 UTC

1 28946U 06007B   26257.42484449 -.00000158  00000-0  00000-0 0  9998
2 28946   2.3218  82.6974 0009255 181.3156 203.5695  0.98118333 75120

AllMySatでEUTELSAT HOTBIRD 13Eをリアルタイム追跡

Download on the App Store